KUIPER-00483

基本信息
目录编号:
68878
目录名称:
KUIPER-00483
国际标识:
2026-095Q
轨道中心:
EARTH
卫星名称:
KUIPER-00483
卫星全名:
KUIPER-00483
卫星状态:
在轨 (已飞行4 天)
发射日期:
2026-04-28 UTC
国别 :
美国 (US)
星等 :
--
轨道信息
数据来源 国际轨道数据
星历时间: 2026-05-02T06:00:02+0800
9小时前
查看轨道信息
半长轴: 6836.899km
偏心率: 0.0011077
轨道倾角: 51.872°
近地点辐角 136.176°
升交点赤经 106.164°
平近点角 101.658°
近地点: 451.188km
远地点: 466.336km
周期: 93.767分钟
每日圈数: 15.357272
详细信息
使用方式:
暂无
2D轨道图
3D轨道图
轨道高度分析图
轨道倾角分析图
轨道综合分析图
查看轨道综合分析图